Back to catalog

STARLINK-5217

AliveCommunicationsVLEO
NORAD 54098·PAYLOAD·🇺🇸 United States

Launched Oct 20, 2022 from Cape Canaveral Space Force Station

Loading…

Next Passes (next 24 hours)

TLE

FreshSource: CelesTrak SupGP

Epoch: Sep 14, 2026, 14:18 UTC

1 54098C 22136AZ  26257.59631944  .00506090  00000+0  26156-1 0  2570
2 54098  53.1604 205.6729 0001238  89.3651 116.7739 15.15518405    14

Track STARLINK-5217 in real time with AllMySat

Download on the App Store